Simultaneous Nadir Overpasses (SNOs) Predictions

Prediction of SNOs between AQUA and NOAA-19 Satellite Orbit:

Table of predicted SNOs for the next 14.0 days since TLE Epoch: 11/17/2012
Index Date (AQUA) Time (AQUA) AQUA Lat,Lon Date (NOAA-19) Time (NOAA-19) NOAA-19 Lat,Lon Distance(km) Time Diff (sec)
1 11/18/2012 01:51:56 46.01, 4.37 11/18/2012 01:51:15 45.89, 4.95 47.09 41
2 11/18/2012 02:40:34 -49.06, 173.19 11/18/2012 02:41:25 -49.02, 173.50 22.83 51
3 11/20/2012 06:36:15 46.02, -66.70 11/20/2012 06:35:47 45.91, -66.16 43.44 28
4 11/20/2012 07:24:41 -49.79, 102.41 11/20/2012 07:25:44 -49.76, 102.70 21.04 63
5 11/22/2012 11:20:33 46.03,-137.77 11/22/2012 11:20:19 45.94,-137.28 39.55 14
6 11/22/2012 12:07:00 -56.78, 34.72 11/22/2012 12:08:13 -56.73, 35.20 30.15 73
7 11/24/2012 16:04:49 46.11, 151.18 11/24/2012 16:04:50 46.01, 151.62 35.52 1
8 11/24/2012 16:42:58 -81.53, 27.78 11/24/2012 16:44:11 -80.91, 28.89 71.41 73
9 11/26/2012 20:48:51 46.95, 80.44 11/26/2012 20:49:07 46.88, 80.85 32.34 16
10 11/26/2012 21:14:39 -46.07, 56.57 11/26/2012 21:15:45 -45.88, 55.41 91.91 66
11 11/29/2012 00:43:59 -46.01,-158.64 11/29/2012 00:42:54 -45.86,-157.93 57.15 65
12 11/29/2012 01:32:50 47.92, 9.75 11/29/2012 01:33:22 47.85, 10.13 29.26 32
13 12/01/2012 05:28:13 -46.03, 130.31 12/01/2012 05:27:25 -45.89, 130.96 52.38 48




NCC Satellite Simultaneous Nadir Overpasses (SNOs) Prediction Service
